Netzbetreibername:;Energie- und Wasserversorgung Altenburg GmbH;
gesetzliche Grundlage:;� 23c Abs. 2 Nr. 5 StromNZV (Lastgangtyp: Bezug aus der vorgelagerten Netzebene NS);
Einheit:;kW;
Betrachtungszeitraum:;01.01.2022 bis 31.12.2022;
;;
;;
;;
Datum;Zeit;Wirkleistung (kW)
;;
01.01.2022;00:15:00;5278
01.01.2022;00:30:00;5211
01.01.2022;00:45:00;5112
01.01.2022;01:00:00;5009
01.01.2022;01:15:00;4993
01.01.2022;01:30:00;4820
01.01.2022;01:45:00;4640
01.01.2022;02:00:00;4554
01.01.2022;02:15:00;4388
01.01.2022;02:30:00;4322
01.01.2022;02:45:00;4172
01.01.2022;03:00:00;4166
01.01.2022;03:15:00;4140
01.01.2022;03:30:00;4182
01.01.2022;03:45:00;4211
01.01.2022;04:00:00;4258
01.01.2022;04:15:00;4262
01.01.2022;04:30:00;4166
01.01.2022;04:45:00;4272
01.01.2022;05:00:00;4239
01.01.2022;05:15:00;4318
01.01.2022;05:30:00;4238
01.01.2022;05:45:00;4156
01.01.2022;06:00:00;4150
01.01.2022;06:15:00;4099
01.01.2022;06:30:00;4039
01.01.2022;06:45:00;4037
01.01.2022;07:00:00;4118
01.01.2022;07:15:00;4273
01.01.2022;07:30:00;4389
01.01.2022;07:45:00;4553
01.01.2022;08:00:00;4652
01.01.2022;08:15:00;4795
01.01.2022;08:30:00;4765
01.01.2022;08:45:00;5054
01.01.2022;09:00:00;5202
01.01.2022;09:15:00;5357
01.01.2022;09:30:00;5508
01.01.2022;09:45:00;5726
01.01.2022;10:00:00;5951
01.01.2022;10:15:00;6289
01.01.2022;10:30:00;6431
01.01.2022;10:45:00;6646
01.01.2022;11:00:00;6857
01.01.2022;11:15:00;7293
01.01.2022;11:30:00;7748
01.01.2022;11:45:00;7994
01.01.2022;12:00:00;8052
01.01.2022;12:15:00;7944
01.01.2022;12:30:00;7803
01.01.2022;12:45:00;7622
01.01.2022;13:00:00;7312
01.01.2022;13:15:00;6835
01.01.2022;13:30:00;6760
01.01.2022;13:45:00;6535
01.01.2022;14:00:00;6544
01.01.2022;14:15:00;6579
01.01.2022;14:30:00;6553
01.01.2022;14:45:00;6456
01.01.2022;15:00:00;6446
01.01.2022;15:15:00;6439
01.01.2022;15:30:00;6451
01.01.2022;15:45:00;6487
01.01.2022;16:00:00;6433
01.01.2022;16:15:00;6650
01.01.2022;16:30:00;6830
01.01.2022;16:45:00;7385
01.01.2022;17:00:00;7684
01.01.2022;17:15:00;7882
01.01.2022;17:30:00;8026
01.01.2022;17:45:00;8210
01.01.2022;18:00:00;8366
01.01.2022;18:15:00;8357
01.01.2022;18:30:00;8425
01.01.2022;18:45:00;8433
01.01.2022;19:00:00;8372
01.01.2022;19:15:00;8234
01.01.2022;19:30:00;8044
01.01.2022;19:45:00;7803
01.01.2022;20:00:00;7598
01.01.2022;20:15:00;7502
01.01.2022;20:30:00;7308
01.01.2022;20:45:00;7138
01.01.2022;21:00:00;6958
01.01.2022;21:15:00;6791
01.01.2022;21:30:00;6610
01.01.2022;21:45:00;6443
01.01.2022;22:00:00;6394
01.01.2022;22:15:00;6365
01.01.2022;22:30:00;6127
01.01.2022;22:45:00;5954
01.01.2022;23:00:00;5778
01.01.2022;23:15:00;5488
01.01.2022;23:30:00;5330
01.01.2022;23:45:00;5087
02.01.2022;00:00:00;4870
02.01.2022;00:15:00;4678
02.01.2022;00:30:00;4495
02.01.2022;00:45:00;4374
02.01.2022;01:00:00;4199
02.01.2022;01:15:00;4134
02.01.2022;01:30:00;4097
02.01.2022;01:45:00;4033
02.01.2022;02:00:00;4010
02.01.2022;02:15:00;3941
02.01.2022;02:30:00;3918
02.01.2022;02:45:00;3892
02.01.2022;03:00:00;3904
02.01.2022;03:15:00;3988
02.01.2022;03:30:00;4034
02.01.2022;03:45:00;4092
02.01.2022;04:00:00;4183
02.01.2022;04:15:00;4267
02.01.2022;04:30:00;4271
02.01.2022;04:45:00;4286
02.01.2022;05:00:00;4312
02.01.2022;05:15:00;4376
02.01.2022;05:30:00;4350
02.01.2022;05:45:00;4244
02.01.2022;06:00:00;4179
02.01.2022;06:15:00;4128
02.01.2022;06:30:00;4176
02.01.2022;06:45:00;4174
02.01.2022;07:00:00;4324
02.01.2022;07:15:00;4534
02.01.2022;07:30:00;4681
02.01.2022;07:45:00;4898
02.01.2022;08:00:00;5268
02.01.2022;08:15:00;5530
02.01.2022;08:30:00;5522
02.01.2022;08:45:00;5772
02.01.2022;09:00:00;5935
02.01.2022;09:15:00;6192
02.01.2022;09:30:00;6430
02.01.2022;09:45:00;6587
02.01.2022;10:00:00;6928
02.01.2022;10:15:00;7144
02.01.2022;10:30:00;7226
02.01.2022;10:45:00;7439
02.01.2022;11:00:00;7638
02.01.2022;11:15:00;8148
02.01.2022;11:30:00;8809
02.01.2022;11:45:00;9129
02.01.2022;12:00:00;9117
02.01.2022;12:15:00;8869
02.01.2022;12:30:00;8475
02.01.2022;12:45:00;7955
02.01.2022;13:00:00;7616
02.01.2022;13:15:00;7318
02.01.2022;13:30:00;7133
02.01.2022;13:45:00;6974
02.01.2022;14:00:00;6771
02.01.2022;14:15:00;6593
02.01.2022;14:30:00;6556
02.01.2022;14:45:00;6689
02.01.2022;15:00:00;6637
02.01.2022;15:15:00;6589
02.01.2022;15:30:00;6600
02.01.2022;15:45:00;6502
02.01.2022;16:00:00;6500
02.01.2022;16:15:00;6549
02.01.2022;16:30:00;6753
02.01.2022;16:45:00;7257
02.01.2022;17:00:00;7660
02.01.2022;17:15:00;7886
02.01.2022;17:30:00;8220
02.01.2022;17:45:00;8598
02.01.2022;18:00:00;8637
02.01.2022;18:15:00;8755
02.01.2022;18:30:00;8796
02.01.2022;18:45:00;8712
02.01.2022;19:00:00;8625
02.01.2022;19:15:00;8404
02.01.2022;19:30:00;8260
02.01.2022;19:45:00;7973
02.01.2022;20:00:00;7755
02.01.2022;20:15:00;7562
02.01.2022;20:30:00;7307
02.01.2022;20:45:00;7096
02.01.2022;21:00:00;6909
02.01.2022;21:15:00;6722
02.01.2022;21:30:00;6577
02.01.2022;21:45:00;6398
02.01.2022;22:00:00;6212
02.01.2022;22:15:00;6161
02.01.2022;22:30:00;5856
02.01.2022;22:45:00;5622
02.01.2022;23:00:00;5416
02.01.2022;23:15:00;5202
02.01.2022;23:30:00;5034
02.01.2022;23:45:00;4833
03.01.2022;00:00:00;4581
03.01.2022;00:15:00;4400
03.01.2022;00:30:00;4290
03.01.2022;00:45:00;4207
03.01.2022;01:00:00;4070
03.01.2022;01:15:00;4055
03.01.2022;01:30:00;3997
03.01.2022;01:45:00;3944
03.01.2022;02:00:00;3909
03.01.2022;02:15:00;3952
03.01.2022;02:30:00;3925
03.01.2022;02:45:00;3947
03.01.2022;03:00:00;3942
03.01.2022;03:15:00;4024
03.01.2022;03:30:00;4088
03.01.2022;03:45:00;4128
03.01.2022;04:00:00;4212
03.01.2022;04:15:00;4413
03.01.2022;04:30:00;4470
03.01.2022;04:45:00;4546
03.01.2022;05:00:00;4722
03.01.2022;05:15:00;4905
03.01.2022;05:30:00;4980
03.01.2022;05:45:00;5119
03.01.2022;06:00:00;5159
03.01.2022;06:15:00;5340
03.01.2022;06:30:00;5614
03.01.2022;06:45:00;5865
03.01.2022;07:00:00;6236
03.01.2022;07:15:00;6587
03.01.2022;07:30:00;6963
03.01.2022;07:45:00;7375
03.01.2022;08:00:00;7611
03.01.2022;08:15:00;7541
03.01.2022;08:30:00;7653
03.01.2022;08:45:00;7784
03.01.2022;09:00:00;7980
03.01.2022;09:15:00;7969
03.01.2022;09:30:00;7995
03.01.2022;09:45:00;7936
03.01.2022;10:00:00;8028
03.01.2022;10:15:00;8199
03.01.2022;10:30:00;8190
03.01.2022;10:45:00;8286
03.01.2022;11:00:00;8476
03.01.2022;11:15:00;8567
03.01.2022;11:30:00;8794
03.01.2022;11:45:00;8934
03.01.2022;12:00:00;8969
03.01.2022;12:15:00;8940
03.01.2022;12:30:00;8665
03.01.2022;12:45:00;8387
03.01.2022;13:00:00;8404
03.01.2022;13:15:00;8186
03.01.2022;13:30:00;7946
03.01.2022;13:45:00;7768
03.01.2022;14:00:00;7606
03.01.2022;14:15:00;7643
03.01.2022;14:30:00;7628
03.01.2022;14:45:00;7550
03.01.2022;15:00:00;7541
03.01.2022;15:15:00;7619
03.01.2022;15:30:00;7643
03.01.2022;15:45:00;7527
03.01.2022;16:00:00;7540
03.01.2022;16:15:00;7769
03.01.2022;16:30:00;7835
03.01.2022;16:45:00;8339
03.01.2022;17:00:00;8622
03.01.2022;17:15:00;8897
03.01.2022;17:30:00;8969
03.01.2022;17:45:00;9166
03.01.2022;18:00:00;9277
03.01.2022;18:15:00;9204
03.01.2022;18:30:00;9035
03.01.2022;18:45:00;8992
03.01.2022;19:00:00;8899
03.01.2022;19:15:00;8711
03.01.2022;19:30:00;8565
03.01.2022;19:45:00;8359
03.01.2022;20:00:00;8142
03.01.2022;20:15:00;7967
03.01.2022;20:30:00;7577
03.01.2022;20:45:00;7388
03.01.2022;21:00:00;7167
03.01.2022;21:15:00;6854
03.01.2022;21:30:00;6731
03.01.2022;21:45:00;6531
03.01.2022;22:00:00;6418
03.01.2022;22:15:00;6263
03.01.2022;22:30:00;5999
03.01.2022;22:45:00;5727
03.01.2022;23:00:00;5650
03.01.2022;23:15:00;5312
03.01.2022;23:30:00;5129
03.01.2022;23:45:00;4954
04.01.2022;00:00:00;4780
04.01.2022;00:15:00;4602
04.01.2022;00:30:00;4475
04.01.2022;00:45:00;4374
04.01.2022;01:00:00;4262
04.01.2022;01:15:00;4248
04.01.2022;01:30:00;4161
04.01.2022;01:45:00;4134
04.01.2022;02:00:00;4095
04.01.2022;02:15:00;4029
04.01.2022;02:30:00;4095
04.01.2022;02:45:00;4098
04.01.2022;03:00:00;4096
04.01.2022;03:15:00;4143
04.01.2022;03:30:00;4170
04.01.2022;03:45:00;4398
04.01.2022;04:00:00;4436
04.01.2022;04:15:00;4579
04.01.2022;04:30:00;4651
04.01.2022;04:45:00;4679
04.01.2022;05:00:00;4736
04.01.2022;05:15:00;4918
04.01.2022;05:30:00;5062
04.01.2022;05:45:00;5236
04.01.2022;06:00:00;5255
04.01.2022;06:15:00;5419
04.01.2022;06:30:00;5730
04.01.2022;06:45:00;5914
04.01.2022;07:00:00;6252
04.01.2022;07:15:00;6657
04.01.2022;07:30:00;7034
04.01.2022;07:45:00;7415
04.01.2022;08:00:00;7629
04.01.2022;08:15:00;7928
04.01.2022;08:30:00;7869
04.01.2022;08:45:00;7937
04.01.2022;09:00:00;8167
04.01.2022;09:15:00;8259
04.01.2022;09:30:00;8287
04.01.2022;09:45:00;8277
04.01.2022;10:00:00;8363
04.01.2022;10:15:00;8428
04.01.2022;10:30:00;8454
04.01.2022;10:45:00;8711
04.01.2022;11:00:00;8752
04.01.2022;11:15:00;8850
04.01.2022;11:30:00;9158
04.01.2022;11:45:00;9312
04.01.2022;12:00:00;9400
04.01.2022;12:15:00;9142
04.01.2022;12:30:00;8771
04.01.2022;12:45:00;8676
04.01.2022;13:00:00;8350
04.01.2022;13:15:00;8273
04.01.2022;13:30:00;8223
04.01.2022;13:45:00;8189
04.01.2022;14:00:00;8127
04.01.2022;14:15:00;8031
04.01.2022;14:30:00;8124
04.01.2022;14:45:00;8095
04.01.2022;15:00:00;8037
04.01.2022;15:15:00;8052
04.01.2022;15:30:00;8024
04.01.2022;15:45:00;7984
04.01.2022;16:00:00;8031
04.01.2022;16:15:00;8147
04.01.2022;16:30:00;8321
04.01.2022;16:45:00;8753
04.01.2022;17:00:00;8857
04.01.2022;17:15:00;8946
04.01.2022;17:30:00;9153
04.01.2022;17:45:00;9321
04.01.2022;18:00:00;9412
04.01.2022;18:15:00;9359
04.01.2022;18:30:00;9382
04.01.2022;18:45:00;9287
04.01.2022;19:00:00;9110
04.01.2022;19:15:00;8913
04.01.2022;19:30:00;8769
04.01.2022;19:45:00;8485
04.01.2022;20:00:00;8377
04.01.2022;20:15:00;8104
04.01.2022;20:30:00;7708
04.01.2022;20:45:00;7409
04.01.2022;21:00:00;7229
04.01.2022;21:15:00;7086
04.01.2022;21:30:00;6884
04.01.2022;21:45:00;6767
04.01.2022;22:00:00;6627
04.01.2022;22:15:00;6485
04.01.2022;22:30:00;6242
04.01.2022;22:45:00;6009
04.01.2022;23:00:00;5787
04.01.2022;23:15:00;5514
04.01.2022;23:30:00;5295
04.01.2022;23:45:00;5113
05.01.2022;00:00:00;4901
05.01.2022;00:15:00;4720
05.01.2022;00:30:00;4628
05.01.2022;00:45:00;4508
05.01.2022;01:00:00;4445
05.01.2022;01:15:00;4437
05.01.2022;01:30:00;4380
05.01.2022;01:45:00;4320
05.01.2022;02:00:00;4257
05.01.2022;02:15:00;4210
05.01.2022;02:30:00;4201
05.01.2022;02:45:00;4217
05.01.2022;03:00:00;4270
05.01.2022;03:15:00;4346
05.01.2022;03:30:00;4458
05.01.2022;03:45:00;4546
05.01.2022;04:00:00;4593
05.01.2022;04:15:00;4774
05.01.2022;04:30:00;4760
05.01.2022;04:45:00;4807
05.01.2022;05:00:00;4923
05.01.2022;05:15:00;5219
05.01.2022;05:30:00;5394
05.01.2022;05:45:00;5548
05.01.2022;06:00:00;5668
05.01.2022;06:15:00;5907
05.01.2022;06:30:00;6153
05.01.2022;06:45:00;6467
05.01.2022;07:00:00;6777
05.01.2022;07:15:00;7135
05.01.2022;07:30:00;7543
05.01.2022;07:45:00;8005
05.01.2022;08:00:00;8402
05.01.2022;08:15:00;8732
05.01.2022;08:30:00;8575
05.01.2022;08:45:00;8405
05.01.2022;09:00:00;8597
05.01.2022;09:15:00;8655
05.01.2022;09:30:00;8581
05.01.2022;09:45:00;8593
05.01.2022;10:00:00;8557
05.01.2022;10:15:00;8661
05.01.2022;10:30:00;8649
05.01.2022;10:45:00;8716
05.01.2022;11:00:00;8800
05.01.2022;11:15:00;8914
05.01.2022;11:30:00;9131
05.01.2022;11:45:00;9270
05.01.2022;12:00:00;9247
05.01.2022;12:15:00;9077
05.01.2022;12:30:00;8880
05.01.2022;12:45:00;8755
05.01.2022;13:00:00;8419
05.01.2022;13:15:00;8368
05.01.2022;13:30:00;8293
05.01.2022;13:45:00;8199
05.01.2022;14:00:00;8160
05.01.2022;14:15:00;8005
05.01.2022;14:30:00;8063
05.01.2022;14:45:00;8128
05.01.2022;15:00:00;8163
05.01.2022;15:15:00;8220
05.01.2022;15:30:00;8206
05.01.2022;15:45:00;8259
05.01.2022;16:00:00;8356
05.01.2022;16:15:00;8370
05.01.2022;16:30:00;8499
05.01.2022;16:45:00;8816
05.01.2022;17:00:00;9133
05.01.2022;17:15:00;9265
05.01.2022;17:30:00;9484
05.01.2022;17:45:00;9790
05.01.2022;18:00:00;9707
05.01.2022;18:15:00;9661
05.01.2022;18:30:00;9655
05.01.2022;18:45:00;9600
05.01.2022;19:00:00;9419
05.01.2022;19:15:00;9173
05.01.2022;19:30:00;8869
05.01.2022;19:45:00;8669
05.01.2022;20:00:00;8523
05.01.2022;20:15:00;8214
05.01.2022;20:30:00;7976
05.01.2022;20:45:00;7661
05.01.2022;21:00:00;7386
05.01.2022;21:15:00;7131
05.01.2022;21:30:00;7007
05.01.2022;21:45:00;6829
05.01.2022;22:00:00;6709
05.01.2022;22:15:00;6448
05.01.2022;22:30:00;6308
05.01.2022;22:45:00;6084
05.01.2022;23:00:00;5889
05.01.2022;23:15:00;5630
05.01.2022;23:30:00;5457
05.01.2022;23:45:00;5295
06.01.2022;00:00:00;5049
06.01.2022;00:15:00;4850
06.01.2022;00:30:00;4703
06.01.2022;00:45:00;4585
06.01.2022;01:00:00;4548
06.01.2022;01:15:00;4497
06.01.2022;01:30:00;4476
06.01.2022;01:45:00;4429
06.01.2022;02:00:00;4419
06.01.2022;02:15:00;4484
06.01.2022;02:30:00;4415
06.01.2022;02:45:00;4482
06.01.2022;03:00:00;4543
06.01.2022;03:15:00;4608
06.01.2022;03:30:00;4700
06.01.2022;03:45:00;4755
06.01.2022;04:00:00;4849
06.01.2022;04:15:00;4993
06.01.2022;04:30:00;4990
06.01.2022;04:45:00;4990
06.01.2022;05:00:00;5074
06.01.2022;05:15:00;5278
06.01.2022;05:30:00;5376
06.01.2022;05:45:00;5576
06.01.2022;06:00:00;5695
06.01.2022;06:15:00;5926
06.01.2022;06:30:00;6154
06.01.2022;06:45:00;6376
06.01.2022;07:00:00;6746
06.01.2022;07:15:00;7166
06.01.2022;07:30:00;7506
06.01.2022;07:45:00;8002
06.01.2022;08:00:00;8222
06.01.2022;08:15:00;8215
06.01.2022;08:30:00;8320
06.01.2022;08:45:00;8306
06.01.2022;09:00:00;8434
06.01.2022;09:15:00;8328
06.01.2022;09:30:00;8296
06.01.2022;09:45:00;8237
06.01.2022;10:00:00;8471
06.01.2022;10:15:00;8451
06.01.2022;10:30:00;8485
06.01.2022;10:45:00;8507
06.01.2022;11:00:00;8689
06.01.2022;11:15:00;8847
06.01.2022;11:30:00;8934
06.01.2022;11:45:00;8914
06.01.2022;12:00:00;8849
06.01.2022;12:15:00;8864
06.01.2022;12:30:00;8740
06.01.2022;12:45:00;8607
06.01.2022;13:00:00;8388
06.01.2022;13:15:00;8210
06.01.2022;13:30:00;8022
06.01.2022;13:45:00;7985
06.01.2022;14:00:00;7827
06.01.2022;14:15:00;7741
06.01.2022;14:30:00;7704
06.01.2022;14:45:00;7594
06.01.2022;15:00:00;7623
06.01.2022;15:15:00;7785
06.01.2022;15:30:00;7750
06.01.2022;15:45:00;7681
06.01.2022;16:00:00;7670
06.01.2022;16:15:00;7714
06.01.2022;16:30:00;8047
06.01.2022;16:45:00;8415
06.01.2022;17:00:00;9045
06.01.2022;17:15:00;9323
06.01.2022;17:30:00;9421
06.01.2022;17:45:00;9647
06.01.2022;18:00:00;9829
06.01.2022;18:15:00;9727
06.01.2022;18:30:00;9747
06.01.2022;18:45:00;9626
06.01.2022;19:00:00;9415
06.01.2022;19:15:00;9215
06.01.2022;19:30:00;9045
06.01.2022;19:45:00;8916
06.01.2022;20:00:00;8562
06.01.2022;20:15:00;8358
06.01.2022;20:30:00;8025
06.01.2022;20:45:00;7694
06.01.2022;21:00:00;7518
06.01.2022;21:15:00;7342
06.01.2022;21:30:00;7140
06.01.2022;21:45:00;6937
06.01.2022;22:00:00;6961
06.01.2022;22:15:00;6789
06.01.2022;22:30:00;6510
06.01.2022;22:45:00;6293
06.01.2022;23:00:00;6100
06.01.2022;23:15:00;5881
06.01.2022;23:30:00;5703
06.01.2022;23:45:00;5495
07.01.2022;00:00:00;5455
07.01.2022;00:15:00;5188
07.01.2022;00:30:00;5058
07.01.2022;00:45:00;4935
07.01.2022;01:00:00;4813
07.01.2022;01:15:00;4819
07.01.2022;01:30:00;4785
07.01.2022;01:45:00;4764
07.01.2022;02:00:00;4749
07.01.2022;02:15:00;4822
07.01.2022;02:30:00;4852
07.01.2022;02:45:00;4863
07.01.2022;03:00:00;4889
07.01.2022;03:15:00;4937
07.01.2022;03:30:00;4932
07.01.2022;03:45:00;4985
07.01.2022;04:00:00;5013
07.01.2022;04:15:00;5190
07.01.2022;04:30:00;5240
07.01.2022;04:45:00;5290
07.01.2022;05:00:00;5403
07.01.2022;05:15:00;5613
07.01.2022;05:30:00;5661
07.01.2022;05:45:00;5823
07.01.2022;06:00:00;5850
07.01.2022;06:15:00;6124
07.01.2022;06:30:00;6347
07.01.2022;06:45:00;6514
07.01.2022;07:00:00;6901
07.01.2022;07:15:00;7423
07.01.2022;07:30:00;7709
07.01.2022;07:45:00;8087
07.01.2022;08:00:00;8393
07.01.2022;08:15:00;8291
07.01.2022;08:30:00;8376
07.01.2022;08:45:00;8557
07.01.2022;09:00:00;8444
07.01.2022;09:15:00;8366
07.01.2022;09:30:00;8383
07.01.2022;09:45:00;8491
07.01.2022;10:00:00;8685
07.01.2022;10:15:00;8834
07.01.2022;10:30:00;8824
07.01.2022;10:45:00;8935
07.01.2022;11:00:00;9000
07.01.2022;11:15:00;9079
07.01.2022;11:30:00;9183
07.01.2022;11:45:00;9286
07.01.2022;12:00:00;9230
07.01.2022;12:15:00;9129
07.01.2022;12:30:00;8979
07.01.2022;12:45:00;8912
07.01.2022;13:00:00;8826
07.01.2022;13:15:00;8632
07.01.2022;13:30:00;8498
07.01.2022;13:45:00;8450
07.01.2022;14:00:00;8489
07.01.2022;14:15:00;8394
07.01.2022;14:30:00;8368
07.01.2022;14:45:00;8262
07.01.2022;15:00:00;8224
07.01.2022;15:15:00;8207
07.01.2022;15:30:00;8240
07.01.2022;15:45:00;8300
07.01.2022;16:00:00;8380
07.01.2022;16:15:00;8456
07.01.2022;16:30:00;8563
07.01.2022;16:45:00;9075
07.01.2022;17:00:00;9225
07.01.2022;17:15:00;9361
07.01.2022;17:30:00;9443
07.01.2022;17:45:00;9604
07.01.2022;18:00:00;9780
07.01.2022;18:15:00;9628
07.01.2022;18:30:00;9472
07.01.2022;18:45:00;9484
07.01.2022;19:00:00;9480
07.01.2022;19:15:00;9110
07.01.2022;19:30:00;8884
07.01.2022;19:45:00;8644
07.01.2022;20:00:00;8398
07.01.2022;20:15:00;8137
07.01.2022;20:30:00;7947
07.01.2022;20:45:00;7742
07.01.2022;21:00:00;7450
07.01.2022;21:15:00;7274
07.01.2022;21:30:00;7120
07.01.2022;21:45:00;7010
07.01.2022;22:00:00;6913
07.01.2022;22:15:00;6887
07.01.2022;22:30:00;6636
07.01.2022;22:45:00;6453
07.01.2022;23:00:00;6266
07.01.2022;23:15:00;6047
07.01.2022;23:30:00;5928
07.01.2022;23:45:00;5725
08.01.2022;00:00:00;5522
08.01.2022;00:15:00;5403
08.01.2022;00:30:00;5182
08.01.2022;00:45:00;5057
08.01.2022;01:00:00;4945
08.01.2022;01:15:00;4861
08.01.2022;01:30:00;4802
08.01.2022;01:45:00;4768
08.01.2022;02:00:00;4716
08.01.2022;02:15:00;4665
08.01.2022;02:30:00;4666
08.01.2022;02:45:00;4692
08.01.2022;03:00:00;4685
08.01.2022;03:15:00;4752
08.01.2022;03:30:00;4851
08.01.2022;03:45:00;4974
08.01.2022;04:00:00;4991
08.01.2022;04:15:00;5025
08.01.2022;04:30:00;5001
08.01.2022;04:45:00;4977
08.01.2022;05:00:00;4992
08.01.2022;05:15:00;5076
08.01.2022;05:30:00;5087
08.01.2022;05:45:00;5109
08.01.2022;06:00:00;5023
08.01.2022;06:15:00;5053
08.01.2022;06:30:00;5187
08.01.2022;06:45:00;5256
08.01.2022;07:00:00;5429
08.01.2022;07:15:00;5645
08.01.2022;07:30:00;5901
08.01.2022;07:45:00;6208
08.01.2022;08:00:00;6677
08.01.2022;08:15:00;7035
08.01.2022;08:30:00;7207
08.01.2022;08:45:00;7249
08.01.2022;09:00:00;7547
08.01.2022;09:15:00;7784
08.01.2022;09:30:00;7907
08.01.2022;09:45:00;8188
08.01.2022;10:00:00;8354
08.01.2022;10:15:00;8438
08.01.2022;10:30:00;8615
08.01.2022;10:45:00;8654
08.01.2022;11:00:00;8817
08.01.2022;11:15:00;9187
08.01.2022;11:30:00;9445
08.01.2022;11:45:00;9702
08.01.2022;12:00:00;9796
08.01.2022;12:15:00;9433
08.01.2022;12:30:00;9175
08.01.2022;12:45:00;8990
08.01.2022;13:00:00;8610
08.01.2022;13:15:00;8365
08.01.2022;13:30:00;8073
08.01.2022;13:45:00;7756
08.01.2022;14:00:00;7684
08.01.2022;14:15:00;7543
08.01.2022;14:30:00;7410
08.01.2022;14:45:00;7330
08.01.2022;15:00:00;7366
08.01.2022;15:15:00;7357
08.01.2022;15:30:00;7412
08.01.2022;15:45:00;7501
08.01.2022;16:00:00;7405
08.01.2022;16:15:00;7436
08.01.2022;16:30:00;7661
08.01.2022;16:45:00;7985
08.01.2022;17:00:00;8560
08.01.2022;17:15:00;8882
08.01.2022;17:30:00;9172
08.01.2022;17:45:00;9441
08.01.2022;18:00:00;9656
08.01.2022;18:15:00;9598
08.01.2022;18:30:00;9630
08.01.2022;18:45:00;9506
08.01.2022;19:00:00;9394
08.01.2022;19:15:00;9297
08.01.2022;19:30:00;8971
08.01.2022;19:45:00;8694
08.01.2022;20:00:00;8558
08.01.2022;20:15:00;8376
08.01.2022;20:30:00;7996
08.01.2022;20:45:00;7778
08.01.2022;21:00:00;7534
08.01.2022;21:15:00;7398
08.01.2022;21:30:00;7128
08.01.2022;21:45:00;7030
08.01.2022;22:00:00;6934
08.01.2022;22:15:00;6925
08.01.2022;22:30:00;6726
08.01.2022;22:45:00;6556
08.01.2022;23:00:00;6385
08.01.2022;23:15:00;6141
08.01.2022;23:30:00;5993
08.01.2022;23:45:00;5924
09.01.2022;00:00:00;5625
09.01.2022;00:15:00;5361
09.01.2022;00:30:00;5182
09.01.2022;00:45:00;5025
09.01.2022;01:00:00;4863
09.01.2022;01:15:00;4826
09.01.2022;01:30:00;4747
09.01.2022;01:45:00;4750
09.01.2022;02:00:00;4672
09.01.2022;02:15:00;4641
09.01.2022;02:30:00;4647
09.01.2022;02:45:00;4684
09.01.2022;03:00:00;4724
09.01.2022;03:15:00;4722
09.01.2022;03:30:00;4767
09.01.2022;03:45:00;4834
09.01.2022;04:00:00;4780
09.01.2022;04:15:00;4766
09.01.2022;04:30:00;4785
09.01.2022;04:45:00;4865
09.01.2022;05:00:00;4833
09.01.2022;05:15:00;4956
09.01.2022;05:30:00;4847
09.01.2022;05:45:00;4831
09.01.2022;06:00:00;4726
09.01.2022;06:15:00;4620
09.01.2022;06:30:00;4580
09.01.2022;06:45:00;4696
09.01.2022;07:00:00;4695
09.01.2022;07:15:00;4921
09.01.2022;07:30:00;5190
09.01.2022;07:45:00;5526
09.01.2022;08:00:00;5911
09.01.2022;08:15:00;5971
09.01.2022;08:30:00;6328
09.01.2022;08:45:00;6686
09.01.2022;09:00:00;7101
09.01.2022;09:15:00;7280
09.01.2022;09:30:00;7282
09.01.2022;09:45:00;7483
09.01.2022;10:00:00;7756
09.01.2022;10:15:00;8043
09.01.2022;10:30:00;8180
09.01.2022;10:45:00;8500
09.01.2022;11:00:00;8872
09.01.2022;11:15:00;9388
09.01.2022;11:30:00;9858
09.01.2022;11:45:00;9984
09.01.2022;12:00:00;10058
09.01.2022;12:15:00;9785
09.01.2022;12:30:00;9445
09.01.2022;12:45:00;8928
09.01.2022;13:00:00;8474
09.01.2022;13:15:00;8195
09.01.2022;13:30:00;8117
09.01.2022;13:45:00;7869
09.01.2022;14:00:00;7722
09.01.2022;14:15:00;7636
09.01.2022;14:30:00;7562
09.01.2022;14:45:00;7593
09.01.2022;15:00:00;7598
09.01.2022;15:15:00;7511
09.01.2022;15:30:00;7652
09.01.2022;15:45:00;7500
09.01.2022;16:00:00;7423
09.01.2022;16:15:00;7570
09.01.2022;16:30:00;7626
09.01.2022;16:45:00;7845
09.01.2022;17:00:00;8323
09.01.2022;17:15:00;8581
09.01.2022;17:30:00;8916
09.01.2022;17:45:00;9152
09.01.2022;18:00:00;9313
09.01.2022;18:15:00;9265
09.01.2022;18:30:00;9212
09.01.2022;18:45:00;9260
09.01.2022;19:00:00;8996
09.01.2022;19:15:00;8840
09.01.2022;19:30:00;8549
09.01.2022;19:45:00;8384
09.01.2022;20:00:00;8151
09.01.2022;20:15:00;7893
09.01.2022;20:30:00;7684
09.01.2022;20:45:00;7392
09.01.2022;21:00:00;7160
09.01.2022;21:15:00;7058
09.01.2022;21:30:00;6852
09.01.2022;21:45:00;6630
09.01.2022;22:00:00;6540
09.01.2022;22:15:00;6373
09.01.2022;22:30:00;6168
09.01.2022;22:45:00;5947
09.01.2022;23:00:00;5729
09.01.2022;23:15:00;5518
09.01.2022;23:30:00;5412
09.01.2022;23:45:00;5188
10.01.2022;00:00:00;5019
10.01.2022;00:15:00;4867
10.01.2022;00:30:00;4778
10.01.2022;00:45:00;4638
10.01.2022;01:00:00;4517
10.01.2022;01:15:00;4473
10.01.2022;01:30:00;4515
10.01.2022;01:45:00;4479
10.01.2022;02:00:00;4484
10.01.2022;02:15:00;4494
10.01.2022;02:30:00;4474
10.01.2022;02:45:00;4435
10.01.2022;03:00:00;4485
10.01.2022;03:15:00;4567
10.01.2022;03:30:00;4602
10.01.2022;03:45:00;4730
10.01.2022;04:00:00;4900
10.01.2022;04:15:00;5066
10.01.2022;04:30:00;5040
10.01.2022;04:45:00;5078
10.01.2022;05:00:00;5154
10.01.2022;05:15:00;5503
10.01.2022;05:30:00;5521
10.01.2022;05:45:00;5695
10.01.2022;06:00:00;5786
10.01.2022;06:15:00;5964
10.01.2022;06:30:00;6257
10.01.2022;06:45:00;6538
10.01.2022;07:00:00;6850
10.01.2022;07:15:00;7330
10.01.2022;07:30:00;7680
10.01.2022;07:45:00;8090
10.01.2022;08:00:00;8452
10.01.2022;08:15:00;8522
10.01.2022;08:30:00;8439
10.01.2022;08:45:00;8494
10.01.2022;09:00:00;8541
10.01.2022;09:15:00;8692
10.01.2022;09:30:00;8687
10.01.2022;09:45:00;8820
10.01.2022;10:00:00;8839
10.01.2022;10:15:00;8820
10.01.2022;10:30:00;8837
10.01.2022;10:45:00;8965
10.01.2022;11:00:00;8980
10.01.2022;11:15:00;9151
10.01.2022;11:30:00;9316
10.01.2022;11:45:00;9408
10.01.2022;12:00:00;9329